Weather History for Wenatchee, WA

Change the Weather History Date:

Monday, September 3, 2012

  Actual Average Record
Temperature  
Mean Temperature 60 °F 69 °F  
Max Temperature 79 °F 81 °F 98 °F (1988)
Min Temperature 40 °F 56 °F 46 °F (1980)
Degree Days  
Heating Degree Days 5 1  
Month to date heating degree days 16 3  
Since 1 July heating degree days 95 17  
Cooling Degree Days 0 5  
Month to date cooling degree days 0 15  
Year to date cooling degree days 290 803  
Growing Degree Days 18 (Base 50)    
Moisture  
Dew Point 42 °F    
Average Humidity 40    
Maximum Humidity 64    
Minimum Humidity 20    
Precipitation  
Precipitation 0.00 in 0.01 in 0.22 in (1997)
Month to date precipitation 0.00 0.03  
Year to date precipitation 15.20 4.75  
Snow  
Snow 0.00 in 0.00 in - ()
Month to date snowfall 0.0 0.0  
Snow Depth 0.00 in    
Sea Level Pressure  
Sea Level Pressure 30.02 in    
Wind  
Wind Speed 7 mph (WNW)    
Max Wind Speed 10 mph    
Max Gust Speed -    
Visibility 10 miles    
Events      
T = Trace of Precipitation, MM = Missing Value Source: NWS Daily Summary

Daily Weather History Graph

Daily Weather History Graph

Search for Another Location

Airport:

Trip Planner

Search our weather history database for the weather conditions in past years. The results will help you decide how hot, cold, wet, or windy it might be!

Date:

Astronomy

Sep. 03, 2012 Rise Set
Actual Time 6:23 AM PDT 7:35 PM PDT
Civil Twilight 5:51 AM PDT 8:07 PM PDT
Nautical Twilight 5:13 AM PDT 8:45 PM PDT
Astronomical Twilight 4:32 AM PDT 9:25 PM PDT
Moon 8:37 PM PDT (9/3) 9:54 AM PDT (9/3)
Length of Visible Light 14h 15m
Length of Day
13h 12m
Waning Gibbous, 90% of the Moon is Illuminated
Sep 3
Waning Gibbous
Sep 8
Last Quarter
Sep 15
New
Sep 22
First Quarter
Sep 29
Full

Hourly Weather History & Observations

Time (PDT) Temp. Dew Point Humidity Pressure Visibility Wind Dir Wind Speed Gust Speed Precip Events Conditions
12:55 AM 64.0 °F 43.0 °F 46% 30.04 in 10.0 mi NW 10.4 mph - N/A   Clear
1:55 AM 62.1 °F 43.0 °F 50% 30.04 in 10.0 mi NW 6.9 mph - N/A   Clear
2:55 AM 62.1 °F 43.0 °F 50% 30.04 in 10.0 mi WNW 6.9 mph - N/A   Clear
3:55 AM 61.0 °F 43.0 °F 52% 30.04 in 10.0 mi NW 9.2 mph - N/A   Clear
4:55 AM 61.0 °F 43.0 °F 52% 30.04 in 10.0 mi WNW 9.2 mph - N/A   Clear
5:55 AM 57.9 °F 43.0 °F 58% 30.04 in 10.0 mi West 5.8 mph - N/A   Clear
6:55 AM 55.0 °F 43.0 °F 64% 30.06 in 10.0 mi WSW 6.9 mph - N/A   Clear
7:55 AM 57.9 °F 43.0 °F 58% 30.07 in 10.0 mi West 5.8 mph - N/A   Clear
8:55 AM 61.0 °F 44.1 °F 54% 30.07 in 10.0 mi SW 4.6 mph - N/A   Clear
9:55 AM 64.9 °F 44.1 °F 47% 30.07 in 10.0 mi WSW 4.6 mph - N/A   Clear
10:55 AM 70.0 °F 43.0 °F 38% 30.05 in 10.0 mi West 5.8 mph - N/A   Clear
11:55 AM 73.0 °F 39.9 °F 30% 30.03 in 10.0 mi Calm Calm - N/A   Clear
12:55 PM 77.0 °F 37.9 °F 24% 30.02 in 10.0 mi South 4.6 mph - N/A   Clear
1:55 PM 79.0 °F 36.0 °F 21% 30.00 in 10.0 mi WSW 4.6 mph - N/A   Clear
2:55 PM 81.0 °F 37.0 °F 21% 29.98 in 10.0 mi West 4.6 mph - N/A   Clear
3:55 PM 81.0 °F 37.9 °F 21% 29.96 in 10.0 mi West 5.8 mph - N/A   Clear
4:55 PM 82.0 °F 37.0 °F 20% 29.94 in 10.0 mi Variable 3.5 mph - N/A   Clear
5:55 PM 82.0 °F 37.9 °F 21% 29.94 in 10.0 mi South 3.5 mph - N/A   Clear
6:55 PM 81.0 °F 39.9 °F 23% 29.94 in 10.0 mi WNW 10.4 mph - N/A   Clear
7:55 PM 73.9 °F 45.0 °F 35% 29.98 in 10.0 mi North 9.2 mph - N/A   Clear
8:55 PM 73.0 °F 45.0 °F 37% 30.01 in 10.0 mi NW 9.2 mph - N/A   Clear
9:55 PM 70.0 °F 45.0 °F 41% 30.03 in 10.0 mi NW 8.1 mph - N/A   Clear
10:55 PM 66.9 °F 45.0 °F 45% 30.04 in 10.0 mi NNW 8.1 mph - N/A   Clear
11:55 PM 66.0 °F 45.0 °F 47% 30.05 in 10.0 mi NNW 8.1 mph - N/A   Clear